Madison, WI

7:55 AM CDT on April 22, 2018 (GMT -0500)
Dane County Regional-Truax

Weather History for KMSN - August, 2013

Change the Weather History Date:

Saturday, August 24, 2013

  Actual Average Record
Temperature  
Mean Temperature 69 °F 68 °F  
Max Temperature 83 °F 79 °F 98 °F (1948)
Min Temperature 55 °F 58 °F 41 °F (1977)
Degree Days  
Heating Degree Days 0 1  
Month to date heating degree days 12 21  
Since 1 June heating degree days 82 91  
Since 1 July heating degree days 30 31  
Cooling Degree Days 4 4  
Month to date cooling degree days 97 131  
Year to date cooling degree days 518 487  
Since 1 June cooling degree days 465 457  
Growing Degree Days 18 (Base 50)    
Moisture  
Dew Point 61 °F    
Average Humidity 74    
Maximum Humidity 93    
Minimum Humidity 55    
Precipitation  
Precipitation 0.00 in 0.12 in 2.25 in (2006)
Month to date precipitation 1.53 3.35  
Year to date precipitation 36.48 23.90  
Snow  
Snow 0.00 in 0.00 in 0.00 in ()
Month to date snowfall 0.0 0.0  
Since 1 June snowfall 0.0 0.0  
Since 1 July snowfall 0.0 0.0  
Snow Depth 0.00 in    
Sea Level Pressure  
Sea Level Pressure 30.20 in    
Wind  
Wind Speed 8 mph (South)    
Max Wind Speed 15 mph    
Max Gust Speed 18 mph    
Visibility 10 miles    
Events      
T = Trace of Precipitation, MM = Missing Value Source: NWS Daily Summary

Daily Weather History Graph

Daily Weather History Graph

Search for Another Location

Airport or City:

Astronomy

Aug. 24, 2013 Rise Set
Actual Time 6:13 AM CDT 7:45 PM CDT
Civil Twilight 5:43 AM CDT 8:15 PM CDT
Nautical Twilight 5:07 AM CDT 8:51 PM CDT
Astronomical Twilight 4:28 AM CDT 9:29 PM CDT
Moon 9:30 PM CDT (8/24) 10:21 AM CDT (8/24)
Length of Visible Light 14h 31m
Length of Day
13h 32m
Waning Gibbous, 84% of the Moon is Illuminated
Aug 24
Waning Gibbous
Aug 28
Last Quarter
Sep 5
New
Sep 12
First Quarter
Sep 19
Full

Hourly Weather History & Observations

Time (CDT) Temp. Heat Index Dew Point Humidity Pressure Visibility Wind Dir Wind Speed Gust Speed Precip Events Conditions
12:53 AM 64.9 °F - 54.0 °F 68% 30.18 in 10.0 mi South 5.8 mph - N/A   Clear
1:53 AM 63.0 °F - 54.0 °F 72% 30.18 in 10.0 mi South 4.6 mph - N/A   Clear
2:53 AM 59.0 °F - 54.0 °F 83% 30.19 in 10.0 mi Calm Calm - N/A   Clear
3:53 AM 57.9 °F - 54.0 °F 87% 30.20 in 10.0 mi Calm Calm - N/A   Clear
4:53 AM 55.9 °F - 54.0 °F 93% 30.22 in 10.0 mi Calm Calm - N/A   Clear
5:53 AM 55.9 °F - 53.1 °F 90% 30.23 in 10.0 mi Calm Calm - N/A   Clear
6:53 AM 57.0 °F - 54.0 °F 89% 30.24 in 10.0 mi Calm Calm - N/A   Clear
7:53 AM 64.9 °F - 57.0 °F 75% 30.25 in 10.0 mi SSE 5.8 mph - N/A   Clear
8:53 AM 69.1 °F - 59.0 °F 70% 30.25 in 10.0 mi South 8.1 mph - N/A   Clear
9:53 AM 72.0 °F - 59.0 °F 64% 30.25 in 10.0 mi South 9.2 mph - N/A   Clear
10:53 AM 75.0 °F - 62.1 °F 64% 30.24 in 10.0 mi South 10.4 mph - N/A   Clear
11:53 AM 78.1 °F - 63.0 °F 60% 30.23 in 10.0 mi South 8.1 mph - N/A   Clear
12:53 PM 80.1 °F 81.9 °F 64.9 °F 60% 30.21 in 10.0 mi South 10.4 mph - N/A   Partly Cloudy
1:53 PM 82.0 °F 83.8 °F 64.9 °F 56% 30.21 in 10.0 mi South 11.5 mph - N/A   Scattered Clouds
2:53 PM 82.0 °F 83.8 °F 64.9 °F 56% 30.19 in 10.0 mi South 12.7 mph 17.3 mph N/A   Partly Cloudy
3:53 PM 82.0 °F 83.8 °F 64.9 °F 56% 30.17 in 10.0 mi SSE 13.8 mph - N/A   Partly Cloudy
4:53 PM 82.0 °F 84.1 °F 66.0 °F 58% 30.16 in 10.0 mi South 11.5 mph - N/A   Partly Cloudy
5:53 PM 82.0 °F 83.8 °F 64.9 °F 56% 30.16 in 10.0 mi South 13.8 mph - N/A   Partly Cloudy
6:53 PM 80.1 °F 81.9 °F 64.9 °F 60% 30.16 in 10.0 mi South 9.2 mph - N/A   Clear
7:53 PM 78.1 °F - 66.0 °F 66% 30.16 in 10.0 mi South 9.2 mph - N/A   Clear
8:53 PM 77.0 °F - 66.0 °F 69% 30.16 in 10.0 mi South 8.1 mph - N/A   Clear
9:53 PM 75.9 °F - 66.0 °F 71% 30.17 in 10.0 mi South 9.2 mph - N/A   Clear
10:53 PM 75.0 °F - 66.0 °F 73% 30.16 in 10.0 mi South 10.4 mph - N/A   Clear
11:53 PM 73.9 °F - 66.0 °F 76% 30.16 in 10.0 mi South 11.5 mph - N/A   Clear